Location: Civís
(42.4648°N, 1.4232°E)
Time: 22:19:03
(UTC+00:00)

Meteor 2-3 Rocket - Visible Passes

Search period start: 18 November 2025 00:00
Search period end: 28 November 2025 00:00
Orbit: 841 x 883 km, 81.2° (Epoch: 18 November)

Date Brightness Start Highest point End Pass type
(mag) Time Alt. Az. Time Alt. Az. Time Alt. Az.
18 Nov 6.8 06:14:29 10° ESE 06:16:44 12° E 06:18:59 10° ENE visible
18 Nov 5.5 16:53:57 10° NE 16:54:55 10° ENE 16:55:53 10° ENE visible
18 Nov 3.6 18:33:28 10° N 18:39:10 75° E 18:44:46 10° SSE visible
18 Nov 6.4 20:18:40 10° NW 20:21:34 14° W 20:24:27 10° WSW visible
19 Nov 6.8 06:06:05 10° ESE 06:08:15 12° E 06:10:25 10° ENE visible
19 Nov 3.6 18:24:58 10° N 18:30:41 74° E 18:36:16 10° SSE visible
19 Nov 6.4 20:10:08 10° NW 20:13:05 15° W 20:16:01 10° WSW visible
20 Nov 6.8 05:57:42 10° ESE 05:59:46 12° E 06:01:50 10° ENE visible
20 Nov 3.6 18:16:29 10° N 18:22:10 73° E 18:27:46 10° SSE visible
20 Nov 6.4 20:01:36 10° NW 20:04:36 15° W 20:07:34 10° WSW visible
21 Nov 6.9 05:49:20 10° ESE 05:51:17 12° E 05:53:14 10° ENE visible
21 Nov 3.6 18:07:59 10° N 18:13:40 72° E 18:19:15 10° SSE visible
21 Nov 6.4 19:53:03 10° NW 19:56:06 15° W 19:59:08 10° WSW visible
22 Nov 6.9 05:40:57 10° E 05:42:48 12° E 05:44:39 10° ENE visible
22 Nov 3.6 17:59:30 10° N 18:05:10 71° ENE 18:10:44 10° SSE visible
22 Nov 6.4 19:44:31 10° NW 19:47:37 15° W 19:50:42 10° WSW visible
23 Nov 6.9 05:32:36 10° E 05:34:19 11° E 05:36:02 10° ENE visible
23 Nov 3.6 17:51:00 10° N 17:56:40 70° E 18:02:14 10° SSE visible
23 Nov 6.5 19:35:59 10° NW 19:39:07 15° W 19:42:15 10° WSW visible
24 Nov 6.9 05:24:15 10° E 05:25:50 11° E 05:27:25 10° ENE visible
24 Nov 3.6 17:42:31 10° N 17:48:10 69° ENE 17:53:43 10° SSE visible
24 Nov 6.5 19:27:26 10° NW 19:30:38 16° W 19:33:49 10° WSW visible
25 Nov 7.0 05:15:54 10° E 05:17:21 11° E 05:18:48 10° ENE visible
25 Nov 3.6 17:34:01 10° N 17:39:40 68° ENE 17:45:12 10° SSE visible
25 Nov 6.5 19:18:53 10° NW 19:22:08 16° W 19:25:22 10° WSW visible
26 Nov 7.0 05:07:35 10° E 05:08:52 11° E 05:10:08 10° ENE visible
26 Nov 3.7 17:25:31 10° N 17:31:09 67° ENE 17:36:42 10° SSE visible
26 Nov 6.5 19:10:21 10° NW 19:13:39 16° W 19:16:56 10° WSW visible
27 Nov 7.0 04:59:17 10° E 05:00:23 11° E 05:01:28 10° ENE visible
27 Nov 3.7 17:17:01 10° N 17:22:39 66° ENE 17:28:11 10° SSE visible
27 Nov 6.5 19:01:49 10° NW 19:05:10 16° W 19:08:29 10° WSW visible
